Find Starlink 30326

NORAD ID: 57639 Int'l Des: 2023-122 Owner: SPXS Country: US Constellation: starlink operational
LEOCIRCULAR

Current View

Loading 3D Globe...

About Starlink 30326

Starlink 30326 (NORAD 57639) is a starlink constellation satellite (v2 mini) launched Aug 17, 2023 by SPXS of US. It operates in LEO, CIRCULAR orbit with a mass of 730.00 kg.

Upcoming Passes

Passes for default location (London). Set your location on the main map for personalized predictions.

Altitude History

Loading altitude history...

Two-Line Element Set

1 57639U 23122H 26263.19321340 .00001371 00000-0 59316-4 0 9992
2 57639 43.0048 74.0505 0001367 264.4459 95.6237 15.27589510171951
Epoch: Sep 20, 2026 • Age: 78 hours

Current Status

Altitude 487.6 km
Apogee / Perigee N/A
Velocity 7.62 km/s
Sub-Earth Point -21.35°S, 101.26°E
Launch Date Aug 17, 2023
Age 3.1 years
Type internet

Technical Details

Classification Payload
Mass 730.00 kg
Dry Mass 700.00 kg
Length 0.30 m
Span 29.00 m
Shape ? Box + pan
Manufacturer SPXS
Bus Type Starlink V2M
Phase Status In Orbit
Owner/State SPXS/US

Most Searched